Bandera, Texas, United States (78003)
Lat: 29.73N, Lon: 99.07W
Wx Zone: TXZ187
Local Info
Past Weather Observations for Yesterday

NOTE: This archive is for the closest National Weather Service station to Bandera. Information may differ from the station used for current weather conditions.

Click here for Long-term Archive

Time Weather Temperature Dewpoint Humidity Pressure Winds Precip Visibility
23:51
Clear
73°F / 23°C 63°F / 17°C 69% 30.12 in
(1020 mb)
NE 3.5 mph
(NE 6 kph)
- 10SM
22:51
Clear
73°F / 23°C 63°F / 17°C 69% 30.09 in
(1019 mb)
NE 5.8 mph
(NE 9 kph)
- 10SM
21:51
Clear
79°F / 26°C 64°F / 18°C 61% 30.09 in
(1019 mb)
E 4.6 mph
(E 7 kph)
- 10SM
20:51
Clear
81°F / 27°C 64°F / 18°C 58% 30.06 in
(1018 mb)
E 5.8 mph
(E 9 kph)
- 10SM
19:51
Clear
82°F / 28°C 64°F / 18°C 55% 30.06 in
(1018 mb)
E 6.9 mph
(E 11 kph)
- 10SM
18:51
Partly Cloudy
86°F / 30°C 63°F / 17°C 46% 30.04 in
(1017 mb)
E 9.2 mph
(E 15 kph)
- 10SM
17:51
Overcast
90°F / 32°C 63°F / 17°C 41% 30.01 in
(1016 mb)
E 11.5 mph
(E 19 kph)
- 10SM
16:51
Overcast
91°F / 33°C 63°F / 17°C 38% 30.01 in
(1016 mb)
E 13.8 mph
(E 22 kph)
- 10SM
15:51
Partly Cloudy
93°F / 34°C 63°F / 17°C 36% 29.98 in
(1015 mb)
E 15 mph
(E 24 kph)
- 10SM
14:51
Mostly Cloudy
93°F / 34°C 63°F / 17°C 36% 30.01 in
(1016 mb)
E 11.5 mph
(E 19 kph)
- 10SM
13:51
Overcast
90°F / 32°C 64°F / 18°C 43% 30.01 in
(1016 mb)
ENE 15 mph
(ENE 24 kph)
- 10SM
12:51
Overcast
90°F / 32°C 66°F / 19°C 46% 30.06 in
(1018 mb)
E 9.2 mph
(E 15 kph)
- 10SM
11:51
Partly Cloudy
88°F / 31°C 68°F / 20°C 52% 30.09 in
(1019 mb)
E 11.5 mph
(E 19 kph)
- 10SM
10:51
Mostly Cloudy
84°F / 29°C 70°F / 21°C 62% 30.09 in
(1019 mb)
E 11.5 mph
(E 19 kph)
- 10SM
10:02
Mostly Cloudy
82°F / 28°C 72°F / 22°C 70% 30.09 in
(1019 mb)
E 11.5 mph
(E 19 kph)
- 10SM
09:51
Mostly Cloudy
82°F / 28°C 72°F / 22°C 70% 30.09 in
(1019 mb)
E 8.1 mph
(E 13 kph)
- 10SM
09:16
Mostly Cloudy
81°F / 27°C 72°F / 22°C 74% 30.09 in
(1019 mb)
E 11.5 mph
(E 19 kph)
- 10SM
08:51
Partly Cloudy
81°F / 27°C 72°F / 22°C 74% 30.09 in
(1019 mb)
E 10.4 mph
(E 17 kph)
- 10SM
07:51
Mostly Cloudy
79°F / 26°C 72°F / 22°C 79% 30.09 in
(1019 mb)
E 9.2 mph
(E 15 kph)
- 10SM
06:51
Overcast
73°F / 23°C 72°F / 22°C 94% 30.06 in
(1018 mb)
NE 5.8 mph
(NE 9 kph)
- 10SM
05:51
Overcast
73°F / 23°C 70°F / 21°C 89% 30.06 in
(1018 mb)
NE 4.6 mph
(NE 7 kph)
- 10SM
05:26
Overcast
73°F / 23°C 72°F / 22°C 94% 30.04 in
(1017 mb)
NE 4.6 mph
(NE 7 kph)
- 10SM
05:15
Mostly Cloudy
73°F / 23°C 72°F / 22°C 94% 30.04 in
(1017 mb)
NE 4.6 mph
(NE 7 kph)
- 10SM
04:51
Mostly Cloudy
73°F / 23°C 72°F / 22°C 94% 30.04 in
(1017 mb)
NE 4.6 mph
(NE 7 kph)
- 10SM
03:51
Mostly Cloudy
73°F / 23°C 72°F / 22°C 94% 30.04 in
(1017 mb)
NE 5.8 mph
(NE 9 kph)
- 10SM
02:51
Partly Cloudy
72°F / 22°C 70°F / 21°C 94% 30.04 in
(1017 mb)
N 4.6 mph
(N 7 kph)
- 10SM
01:51
Clear
73°F / 23°C 70°F / 21°C 89% 30.04 in
(1017 mb)
N 4.6 mph
(N 7 kph)
- 10SM
00:51
Clear
73°F / 23°C 70°F / 21°C 89% 30.04 in
(1017 mb)
NE 4.6 mph
(NE 7 kph)
- 10SM
Time Weather Temperature Dewpoint Humidity Pressure Winds Precip Visibility


Weather for websites

WeatherForYou.com, LLC is not responsible for any damages or problems caused by this service. Current weather conditions are obtained from the closest station including government and personal stations which may have varying degrees of accuracy. Weather forecasts are derived from the NOAA NDFD. Like all things, this site belongs to Jesus Christ... He just trusts me to maintain it. If you have any questions or comments email webmaster@weatherforyou.com

Copyright © 2014, WeatherForYou.com LLC. All rights reserved.